Wind_Speed
18 17 16 15 15 13 13 12 11 12 12 13 16 18 18 17 16 16 17 16 14 14 15 15 15 15 15 17 18 18 17 15 14 13 13 13 14 15 16 17 17 17 17 17 17 17 17 18 18 17 17 20 21 18 16 15 16 17 16 16 16 16 17 17 14 9 7 12 18 18 18 17 15 16 16 14 14 14 14 14 14 13 12 12 11
17 17 16 17 17 16 14 13 12 12 12 12 13 16 17 17 16 16 17 15 13 15 15 15 15 15 16 17 18 18 17 16 14 14 13 14 15 15 16 17 17 17 17 17 17 17 17 18 18 17 18 20 21 19 17 17 17 17 18 18 18 17 17 17 16 12 8 11 18 19 19 18 16 16 16 14 14 14 14 14 13 13 12 12 11
15 15 15 15 16 16 14 13 13 11 10 11 12 13 14 16 16 16 15 14 14 15 16 15 16 16 16 17 18 18 16 16 15 14 14 14 14 15 15 16 16 17 17 17 17 17 18 18 17 18 18 20 22 21 19 18 18 18 18 19 19 18 18 18 17 15 11 11 17 19 19 18 17 16 16 14 14 14 14 15 14 12 12 11 11
15 13 12 12 13 14 12 12 13 11 8 8 10 11 13 16 17 17 15 14 14 15 16 16 16 16 17 18 18 17 16 15 14 13 13 13 13 14 14 15 16 16 17 17 17 18 19 19 18 18 19 21 23 23 22 20 19 19 19 19 20 20 19 18 17 16 14 12 15 18 18 17 17 17 16 15 14 14 14 15 14 13 13 12 11
20 16 12 10 10 11 11 11 12 12 9 7 8 10 13 15 17 17 15 14 15 15 16 16 16 16 17 18 18 17 15 14 13 12 12 12 13 14 14 14 15 16 17 17 17 18 18 18 18 18 19 21 22 24 25 23 20 20 20 20 21 21 20 20 19 18 17 14 14 17 18 17 17 17 17 16 15 14 14 15 15 15 15 14 13
24 22 18 13 10 10 10 10 10 12 10 7 6 8 11 13 16 17 16 14 15 16 16 16 16 16 16 17 18 17 15 14 12 12 12 12 13 13 14 15 15 16 17 16 17 17 17 18 18 18 19 20 22 24 25 25 23 21 21 22 22 22 22 21 21 20 19 17 16 16 18 18 18 18 18 17 16 15 14 14 15 16 16 15 14
26 26 24 20 14 10 9 9 10 11 11 8 6 6 7 9 13 16 15 15 15 16 16 16 15 15 16 17 18 17 16 14 12 12 12 12 13 13 14 15 15 15 16 16 17 17 16 17 18 19 19 20 22 23 24 26 26 24 22 22 22 23 23 22 22 22 20 19 18 17 18 18 18 19 19 19 18 17 16 15 14 14 15 14 14
28 29 28 26 22 15 10 9 9 9 10 9 6 4 6 7 10 12 12 13 15 15 15 15 14 15 16 18 19 18 16 14 13 12 12 12 13 13 14 14 14 15 16 16 17 17 16 17 18 19 19 19 21 22 22 24 25 25 23 22 22 24 24 24 25 24 22 20 20 19 19 18 18 18 18 20 21 20 19 17 14 13 13 13 14
28 30 30 30 28 23 15 11 9 9 9 8 6 4 5 6 7 9 10 11 12 12 14 14 13 14 16 18 19 18 15 14 13 13 12 12 13 13 14 14 14 14 15 16 17 17 17 17 18 19 19 19 20 21 21 22 23 24 24 23 23 23 25 28 26 22 22 21 21 21 21 20 19 17 17 19 21 21 19 16 15 14 14 13 13
28 29 31 32 31 28 21 15 11 9 8 8 6 4 5 6 7 9 10 10 10 11 13 14 13 13 15 18 18 16 15 14 13 13 13 13 13 13 14 14 14 14 15 16 16 16 17 17 18 19 18 19 19 20 20 21 22 24 24 23 23 22 25 28 24 20 23 24 22 22 22 21 19 16 15 18 19 19 18 17 17 17 15 14 14
28 29 30 31 32 31 28 21 14 11 8 8 7 5 5 7 8 10 10 9 10 12 13 14 13 14 16 18 17 15 14 14 14 14 14 14 14 14 14 14 14 15 15 15 16 16 17 17 17 18 18 18 19 19 20 20 21 22 22 23 23 23 24 25 22 22 25 26 24 23 22 21 18 15 15 17 17 16 17 18 19 19 18 17 17
28 29 30 30 31 32 32 28 22 15 10 9 8 8 8 9 10 11 11 10 11 13 14 15 14 15 17 19 18 15 14 15 15 14 14 14 14 15 16 16 15 15 15 14 15 15 16 16 16 17 18 18 18 19 20 21 21 22 22 22 23 24 24 24 23 24 26 27 28 25 22 21 18 15 16 18 17 16 16 17 19 20 20 19 19
29 30 31 31 31 32 32 32 29 23 15 10 9 8 9 10 11 12 12 12 12 13 14 15 15 16 18 19 18 16 14 14 15 15 14 14 14 15 16 17 16 16 15 15 15 15 15 15 15 16 17 17 18 19 20 20 21 22 22 23 23 24 24 25 25 25 26 27 28 28 24 22 20 18 17 18 17 17 17 17 18 19 20 20 20
31 31 32 32 33 33 33 33 33 30 24 16 10 7 7 8 10 12 12 14 14 14 15 15 15 16 17 19 19 17 16 15 16 16 15 15 14 15 17 18 17 17 16 15 14 14 14 14 14 14 15 16 17 18 19 19 20 21 22 22 23 23 24 26 26 27 27 26 29 30 27 24 22 21 20 19 19 18 18 18 18 18 19 21 21
32 32 32 33 34 35 35 34 33 33 31 26 18 11 8 7 8 10 12 14 16 17 17 17 17 17 17 18 19 18 17 17 17 17 16 16 15 16 17 18 18 18 17 15 14 14 14 14 14 14 14 14 15 16 17 18 19 21 22 22 22 22 24 25 25 26 27 26 29 31 28 24 23 22 22 21 20 19 19 18 19 19 19 20 19
34 32 32 33 34 34 35 36 35 34 33 32 28 22 16 12 10 10 11 13 15 16 18 19 20 19 19 19 19 19 20 19 18 18 18 17 17 17 18 18 18 18 17 16 16 16 15 14 13 13 13 12 13 14 16 18 19 19 20 21 20 20 22 23 24 24 25 24 25 27 25 23 22 21 21 20 19 18 18 17 18 17 16 13 12
35 33 32 31 32 33 34 35 36 36 34 34 33 31 27 22 19 15 13 12 13 14 16 19 21 21 21 21 21 20 21 22 21 20 19 19 18 18 18 17 17 17 17 17 18 17 16 15 14 13 12 11 11 11 13 16 16 14 15 15 15 15 15 16 17 18 19 20 20 21 21 20 18 17 17 16 15 14 14 13 13 12 11 9 9
34 33 31 30 30 32 33 34 35 35 35 34 33 32 31 29 26 23 20 17 15 13 14 16 18 19 20 22 22 22 22 23 24 22 20 19 19 18 17 17 17 17 17 17 19 19 18 17 16 14 13 12 11 10 11 12 12 10 10 11 10 10 10 10 10 11 13 13 11 11 11 10 11 11 9 8 8 9 10 10 9 9 10 10 11
32 32 31 29 29 30 31 32 33 33 33 32 32 31 30 28 26 25 23 21 18 16 13 13 15 16 17 19 21 22 23 23 25 25 22 19 19 19 18 16 16 16 16 16 19 21 21 20 18 17 15 13 12 11 11 10 10 10 10 9 9 9 9 9 8 10 11 10 7 6 6 6 7 8 5 5 6 9 10 9 8 9 10 9 10
29 30 30 29 29 29 30 31 31 31 30 30 29 29 27 25 23 22 21 19 17 15 13 11 10 11 12 14 16 19 21 21 23 25 23 21 21 21 20 18 17 17 17 17 18 21 23 22 21 19 17 16 15 14 13 12 11 11 11 9 9 9 10 10 10 10 10 8 7 7 7 7 8 8 6 6 8 9 10 8 6 8 9 9 10
26 28 29 29 29 29 28 28 28 27 27 27 27 26 25 23 21 20 19 17 16 14 13 11 9 6 6 7 9 11 14 15 19 24 24 22 23 23 22 21 20 19 20 20 19 21 23 24 23 21 20 19 18 17 16 16 15 13 11 10 9 9 10 11 11 11 9 8 7 7 7 7 7 6 6 6 7 8 9 9 8 8 8 9 9
24 26 28 29 30 29 27 26 25 24 24 24 23 22 21 20 20 19 17 16 15 15 15 14 13 11 9 6 5 3 4 4 10 20 22 20 21 23 21 21 20 20 19 19 18 20 22 23 22 22 21 21 20 19 18 17 16 14 12 11 10 10 12 13 12 11 10 8 7 7 6 6 6 6 6 6 7 7 7 7 7 7 7 7 8
23 25 26 28 29 29 28 27 25 24 24 24 23 22 20 17 17 17 17 16 16 15 15 14 14 14 14 13 12 10 9 8 4 8 14 13 14 15 16 17 19 19 18 17 17 19 20 19 19 21 21 21 20 19 18 16 15 14 14 13 12 12 12 11 10 9 8 7 6 6 5 5 5 5 5 5 5 5 5 5 5 6 6 7 7
24 25 26 26 27 28 28 28 27 26 25 25 25 25 23 20 18 17 16 16 15 15 14 13 13 13 14 15 16 15 15 15 14 9 5 5 6 7 9 13 16 17 18 18 19 20 19 19 20 21 21 21 20 19 17 15 15 15 14 13 12 10 8 7 7 7 7 7 7 6 6 6 5 4 4 3 3 3 4 4 4 5 5 6 6
24 24 25 26 27 27 27 26 27 27 26 26 25 26 26 25 24 22 20 19 18 17 15 13 11 11 13 15 16 16 15 14 14 14 12 7 6 5 5 8 11 13 16 18 19 20 19 19 19 18 18 17 17 16 16 15 14 14 13 12 10 8 6 5 6 6 7 7 7 7 6 6 5 5 4 4 3 2 2 2 3 4 5 6 6
22 22 24 25 26 25 24 24 25 25 25 26 26 26 27 26 26 25 24 24 24 22 19 16 13 10 9 10 12 13 13 13 13 14 14 12 10 9 8 7 9 11 13 16 16 17 17 17 16 16 15 14 13 14 15 15 14 13 12 10 8 7 5 4 4 5 6 6 6 6 6 6 5 4 3 2 0 0 1 1 2 3 4 5 6
20 20 22 24 25 24 22 21 22 23 23 24 25 27 28 28 28 28 27 25 25 24 23 22 20 17 13 9 7 7 8 10 11 12 14 14 14 14 13 13 14 14 16 17 17 17 17 17 16 16 16 16 15 15 15 14 13 12 12 11 9 6 4 2 2 4 5 5 6 6 5 5 4 3 2 2 1 1 1 1 1 1 2 3 4
18 19 20 23 24 23 21 20 21 21 21 22 23 25 27 29 30 30 29 27 25 24 23 23 23 23 21 16 11 7 6 7 10 11 12 12 13 13 14 14 14 15 17 18 19 20 20 20 20 19 19 19 19 18 17 15 12 10 9 10 9 6 4 3 2 3 5 5 5 5 5 4 4 4 3 2 2 2 2 3 2 2 3 3 2
18 18 19 21 22 22 22 21 21 20 19 19 21 22 24 27 28 29 28 27 26 24 23 21 21 21 21 21 18 14 10 9 11 13 13 12 11 10 11 12 12 13 15 15 15 15 16 17 17 17 16 16 16 16 15 14 12 10 8 7 7 6 4 3 3 3 5 5 5 5 5 5 4 4 4 3 3 3 4 4 4 4 4 4 3
18 17 18 20 20 21 21 21 21 21 19 18 19 20 21 23 25 27 27 26 26 25 24 22 20 18 18 19 19 19 17 14 12 13 13 14 14 14 15 15 15 15 15 13 11 11 11 11 12 12 12 11 12 11 11 10 9 9 8 8 7 6 5 4 3 3 4 5 5 5 5 5 4 4 4 4 5 5 5 5 5 6 5 5 6
18 17 17 18 19 20 21 20 20 20 19 17 17 17 18 20 21 24 24 23 23 23 23 22 20 17 15 15 15 17 18 17 16 15 15 15 15 16 16 15 15 15 13 12 11 11 11 11 11 10 9 9 9 8 8 7 6 6 7 7 7 6 5 4 3 3 4 4 4 5 5 5 5 5 5 6 6 7 7 7 7 7 7 7 7
17 16 17 18 18 18 20 20 20 20 19 18 17 17 17 18 19 20 20 20 21 22 22 21 20 18 15 12 11 12 13 14 15 16 16 16 16 16 15 16 15 15 15 14 14 14 13 12 11 10 9 9 8 7 6 6 5 5 5 5 5 5 4 3 3 3 3 4 4 4 5 5 5 6 7 7 8 8 8 8 8 9 8 8 8
16 16 16 17 16 17 18 19 20 20 20 19 19 18 18 18 18 18 18 19 20 21 20 20 19 18 16 13 9 8 9 9 10 10 11 13 13 13 13 13 13 13 13 13 13 13 12 11 10 9 9 8 7 7 6 4 3 4 4 4 5 5 5 5 5 5 5 6 6 6 6 6 7 7 8 8 9 9 9 9 10 10 9 9 8
15 15 15 15 15 16 17 18 19 19 20 20 19 18 18 18 18 18 19 19 19 20 20 20 19 18 17 14 11 7 6 5 5 5 6 7 7 8 8 9 9 10 10 10 10 11 11 9 8 7 7 6 6 5 4 3 4 6 6 7 7 7 8 8 8 7 7 8 8 7 8 8 8 8 9 9 10 10 11 11 11 11 11 10 10
14 15 15 14 14 14 15 16 17 17 18 19 19 19 18 18 18 19 19 19 19 20 19 19 20 19 17 16 14 10 8 6 5 3 3 3 4 4 4 5 5 6 6 6 7 8 9 8 7 5 4 4 3 2 3 6 7 8 8 9 9 10 10 9 9 8 8 8 9 9 9 9 9 10 10 10 11 11 12 12 13 13 12 12 11
13 14 15 14 13 13 13 13 15 15 16 17 19 19 19 18 18 17 18 18 19 18 17 18 19 18 17 17 16 13 10 9 8 6 4 3 3 3 3 2 2 4 4 4 5 6 7 7 6 3 2 2 3 5 7 9 9 10 10 10 10 10 10 10 10 9 9 9 9 10 10 10 10 11 11 12 12 12 12 12 12 13 12 11 11
11 13 14 15 13 12 11 12 13 14 14 16 18 20 20 20 18 16 15 16 17 16 16 17 16 15 16 17 17 15 12 9 8 8 6 3 2 2 2 2 2 2 2 3 4 5 6 6 5 2 3 5 7 9 10 11 11 11 11 11 11 10 10 10 10 9 9 10 11 11 11 11 11 11 12 12 12 12 12 12 12 12 11 11 11
10 12 14 15 14 12 10 10 11 11 13 15 18 20 21 21 20 17 14 14 15 15 14 15 15 16 18 18 17 16 13 9 6 6 5 4 3 2 2 1 1 1 1 2 3 4 5 5 3 2 6 9 11 12 12 12 12 12 11 11 11 10 10 10 10 10 10 11 12 12 11 11 11 11 11 12 12 11 11 11 11 11 11 10 11
12 13 14 15 14 11 9 9 9 10 11 13 16 19 21 22 21 18 14 13 13 14 14 14 16 19 21 19 17 16 14 9 6 5 4 4 4 3 1 1 1 1 1 2 3 3 4 3 1 6 10 12 13 13 13 12 12 12 11 11 10 10 11 11 10 11 11 11 12 12 11 12 11 11 11 12 11 10 10 9 9 9 9 10 10
13 14 14 14 13 11 8 7 8 8 9 12 15 18 21 21 21 18 15 12 13 14 14 15 17 20 20 19 18 16 12 8 7 5 4 3 3 2 1 2 1 1 0 1 1 2 3 1 6 11 13 13 13 13 12 12 11 11 11 10 10 11 11 11 11 11 11 11 11 11 11 11 11 11 11 11 11 11 10 9 9 9 9 9 9
13 13 13 13 12 10 7 6 6 7 8 10 13 17 19 20 20 19 16 12 11 12 13 14 17 19 18 18 18 16 12 9 9 6 3 1 1 0 2 2 2 1 1 1 1 1 1 5 11 14 14 13 12 11 11 10 10 10 10 10 10 9 10 10 9 9 9 9 9 9 9 9 9 9 9 10 10 11 11 10 10 10 10 9 9
12 12 12 13 12 10 7 6 6 6 7 9 11 13 16 17 19 20 18 13 9 9 11 12 15 17 17 17 18 16 13 12 12 10 5 2 2 3 2 2 4 5 3 4 4 2 1 7 13 14 12 12 11 10 9 9 9 9 9 9 8 8 8 8 8 7 7 7 7 8 8 8 8 7 7 8 9 10 10 10 10 11 10 9 8
10 10 10 11 12 11 8 6 6 7 8 9 10 12 14 16 17 19 19 15 11 10 11 12 13 13 14 16 17 15 14 14 14 13 11 7 4 3 2 3 4 3 5 9 7 3 3 8 13 13 11 10 10 8 7 7 7 7 7 8 7 7 7 7 6 6 6 6 6 7 7 7 7 6 6 6 7 8 9 9 10 11 11 9 8
9 9 9 9 10 10 9 8 8 9 10 11 12 13 14 14 16 18 18 16 13 11 11 12 13 13 12 13 14 13 14 14 15 15 14 13 10 6 3 4 7 9 10 10 7 5 7 10 11 10 10 10 9 8 7 6 6 6 6 7 6 6 6 6 6 6 6 5 5 5 6 6 6 5 5 5 6 7 8 8 8 10 11 10 7
9 9 9 9 10 10 10 11 12 11 11 12 13 13 13 13 13 15 16 15 13 11 11 12 13 12 11 10 11 10 11 13 14 15 15 14 14 12 9 10 12 11 9 7 6 7 9 10 10 10 10 8 7 6 5 5 5 6 7 7 7 5 6 6 6 5 5 5 4 4 4 4 4 4 4 4 4 5 6 6 7 7 10 10 7
10 9 9 9 10 10 11 12 13 12 11 11 12 13 13 13 12 12 14 14 13 12 11 12 12 11 10 9 8 8 8 10 12 13 14 14 13 13 12 9 8 8 8 7 6 7 8 9 9 10 9 7 6 5 3 3 4 5 6 6 7 6 6 6 5 5 5 4 3 3 3 3 3 3 3 4 3 3 3 4 5 6 7 8 7
12 11 9 8 8 9 10 12 13 12 10 10 11 12 13 13 12 11 12 12 12 11 11 11 11 10 9 8 6 4 6 9 11 13 14 14 13 12 11 9 6 4 4 5 5 5 6 7 7 7 8 7 6 5 3 2 2 3 4 5 6 7 7 6 5 4 3 3 2 1 1 1 2 3 3 3 3 3 2 2 3 4 5 6 6
14 12 10 8 7 7 9 11 12 10 8 8 10 11 12 13 12 10 10 11 10 9 9 11 11 10 8 7 5 4 5 8 10 11 12 12 13 12 11 8 7 5 3 3 5 6 6 5 5 6 7 6 5 4 3 2 2 3 4 5 6 7 7 6 5 4 3 2 2 2 2 2 2 3 4 3 3 2 2 2 1 1 4 4 5
14 12 10 8 7 7 9 11 12 11 9 8 9 10 11 12 12 12 10 10 9 9 8 9 10 9 7 5 4 4 5 6 7 9 10 10 10 10 10 9 6 4 3 2 2 3 3 3 3 4 4 5 5 4 3 3 3 3 4 5 6 6 6 6 4 3 2 1 2 2 2 3 3 5 6 6 5 3 2 4 4 2 3 4 4
14 11 9 8 7 8 9 11 11 12 11 9 9 10 10 11 13 13 11 9 8 9 9 8 9 9 8 4 1 2 3 4 5 7 9 9 8 7 7 8 6 4 2 2 1 1 1 2 3 3 3 4 5 5 4 4 4 5 5 5 6 6 6 5 3 2 1 1 2 3 3 4 6 7 8 8 5 2 4 6 5 4 3 3 3
13 11 9 7 7 8 9 10 10 11 11 10 10 10 9 10 11 12 11 9 8 9 9 9 8 9 9 7 5 4 1 3 4 5 7 9 8 5 4 5 5 3 2 1 1 1 1 2 2 3 3 4 5 5 5 5 5 6 6 6 6 6 5 4 3 2 2 2 3 4 5 6 8 9 8 6 1 3 6 6 6 5 4 2 2
Wind_Direction
333 334 333 327 324 325 325 324 320 311 297 279 267 259 252 248 247 242 238 238 233 227 228 227 220 216 218 221 223 227 233 236 240 243 242 241 242 241 240 240 240 240 239 237 235 233 230 227 227 224 217 213 212 211 212 208 204 203 205 208 211 210 212 219 220 219 228 212 203 202 200 198 199 197 194 195 195 195 194 193 192 189 190 194 197
335 335 333 326 324 329 331 324 316 313 307 290 271 261 250 242 240 238 235 238 232 224 226 227 221 218 219 222 225 229 233 233 233 236 238 240 242 242 240 239 237 236 235 235 234 233 231 228 226 224 219 215 211 208 208 206 203 205 208 208 210 208 208 216 218 217 220 202 195 198 198 198 201 198 196 196 195 197 197 197 197 193 194 199 203
342 336 335 330 326 328 333 329 315 306 309 304 285 268 251 239 236 234 236 239 230 223 226 227 225 224 223 223 226 228 230 230 228 230 234 237 240 242 242 240 236 235 235 235 235 235 233 229 226 224 219 215 212 208 207 208 207 207 211 210 208 206 206 212 216 216 218 204 196 197 197 197 198 194 194 197 199 201 202 203 202 200 200 204 208
1 345 335 330 326 323 324 327 322 308 302 305 293 270 248 239 235 231 236 241 231 225 229 231 232 233 230 227 227 227 227 226 223 225 230 234 239 241 242 240 238 237 236 236 237 238 235 231 228 227 222 216 213 211 209 210 211 210 213 213 210 210 209 209 213 216 216 210 202 201 199 198 196 192 192 196 201 206 208 210 209 207 208 210 214
14 4 348 331 324 322 317 318 325 322 308 297 292 269 242 231 230 231 237 241 234 229 231 234 237 238 236 233 231 228 226 222 219 221 225 229 236 241 242 240 238 238 237 236 237 237 236 234 232 230 226 221 218 216 213 213 214 214 215 215 214 215 212 208 211 214 214 213 209 205 204 201 197 194 194 197 202 206 211 215 215 215 213 214 219
18 15 7 352 332 318 313 311 319 325 317 297 286 278 255 231 223 228 237 239 236 234 233 234 238 240 238 237 233 231 228 224 222 222 223 226 232 239 241 239 238 237 235 234 235 236 235 234 235 232 229 227 225 223 220 216 216 218 217 216 216 217 214 211 210 211 213 215 214 209 208 207 204 201 199 201 206 208 213 217 219 220 218 218 222
21 20 17 11 356 330 314 310 313 322 322 308 293 299 292 254 226 224 229 233 235 237 236 234 235 239 242 241 237 234 232 228 224 222 222 225 231 236 239 239 239 237 233 231 232 235 233 230 232 232 230 230 231 229 226 221 218 219 220 218 218 219 219 216 213 211 214 216 216 214 213 211 210 211 211 212 214 215 217 220 221 222 220 220 223
25 25 24 22 15 360 338 319 311 317 324 321 304 294 304 281 240 226 226 232 235 238 239 236 233 237 242 242 238 234 231 227 225 225 225 225 228 233 237 239 240 236 232 231 231 232 231 227 229 231 231 231 231 230 228 224 220 220 221 220 221 223 223 222 218 215 215 219 220 219 219 216 215 218 220 219 220 221 221 220 220 223 222 221 224
27 28 28 27 24 16 2 340 321 313 314 321 320 285 275 271 249 238 240 243 242 241 240 237 235 239 244 242 237 233 229 226 226 228 229 226 224 228 234 237 237 235 233 234 233 230 227 225 227 230 229 228 227 226 225 223 221 221 221 222 225 227 228 230 227 219 217 223 224 221 223 224 223 226 227 222 221 224 224 223 223 226 226 224 224
28 29 28 28 28 25 16 0 340 323 309 311 323 305 265 259 258 255 250 247 248 247 244 240 240 244 247 244 239 235 232 230 228 230 232 229 223 225 232 236 236 237 237 235 232 228 226 225 227 226 223 223 223 221 220 220 221 223 224 226 230 231 232 235 233 222 220 225 225 222 225 229 230 233 232 223 221 224 225 224 224 226 228 230 231
27 28 28 28 29 29 26 19 3 343 325 311 308 302 278 264 263 263 256 246 243 244 244 243 245 250 250 245 240 239 240 235 230 230 232 229 225 225 230 234 237 238 238 236 233 229 226 226 226 222 219 221 222 220 219 221 223 225 227 229 231 233 236 239 236 227 224 224 225 225 226 229 231 236 234 222 217 221 223 223 225 228 231 234 238
26 28 29 28 28 29 28 27 20 6 348 329 315 300 281 268 265 265 262 255 247 244 245 245 247 251 251 246 243 243 244 239 232 230 230 228 225 226 230 233 236 237 237 236 234 230 225 223 222 221 220 222 225 224 223 224 225 227 228 230 232 233 235 237 236 232 228 225 225 225 226 230 233 235 232 222 216 219 222 223 227 231 235 237 242
25 28 29 28 28 28 27 28 27 22 10 353 335 314 289 275 274 274 270 266 262 258 254 251 251 252 251 248 246 246 245 240 231 226 226 228 227 228 230 233 234 234 234 233 232 229 224 221 220 222 223 224 225 225 225 227 228 230 231 233 235 236 237 238 237 234 231 228 227 226 227 232 237 237 232 225 221 223 225 227 230 232 237 241 245
26 28 29 28 28 28 28 28 29 28 24 15 1 340 316 299 292 287 278 272 268 266 260 254 251 251 251 252 251 248 243 237 230 225 224 228 232 232 232 232 231 230 230 230 228 226 222 218 219 222 224 225 226 226 227 228 228 231 234 236 239 238 238 238 238 237 234 228 225 227 229 231 236 240 237 230 227 227 229 233 234 235 239 243 247
27 27 28 27 27 28 29 28 29 30 29 26 22 14 359 340 322 308 294 280 271 268 264 258 252 250 252 255 255 252 245 234 228 227 227 229 233 232 230 229 228 227 226 225 224 219 215 215 219 221 223 224 226 227 226 227 229 232 234 235 236 235 236 238 237 239 241 231 220 221 226 230 235 240 238 233 228 228 230 232 233 235 238 241 244
28 27 28 28 27 28 28 27 28 29 29 29 29 27 24 15 1 344 323 303 288 278 270 264 259 256 256 255 253 250 248 240 232 229 230 232 233 230 226 225 226 225 223 223 222 215 211 214 216 215 215 217 223 227 228 230 234 237 235 232 232 233 237 239 237 239 245 241 228 225 229 232 233 234 233 230 227 227 227 228 229 230 229 230 237
28 27 27 28 28 28 27 26 26 27 28 29 29 29 29 28 24 15 358 337 319 301 283 269 261 256 255 254 251 247 247 246 241 234 231 234 233 227 222 220 221 221 220 222 220 211 208 210 209 207 208 210 215 223 228 232 235 238 234 230 232 235 235 236 236 238 241 240 232 226 225 224 222 221 221 220 218 219 217 217 221 221 220 230 255
27 27 26 27 27 28 27 25 25 27 28 29 29 28 29 29 27 24 18 9 354 333 308 286 271 260 252 249 249 246 245 246 245 238 232 232 231 226 221 217 216 217 218 219 215 209 207 207 205 204 204 206 210 216 224 227 227 228 229 226 228 231 223 219 225 225 218 211 204 199 195 194 198 200 198 198 206 214 214 215 225 238 243 250 261
27 27 27 27 27 28 28 27 27 27 28 29 29 29 29 29 27 25 23 19 11 357 337 313 293 276 261 249 244 241 240 242 242 238 230 226 225 224 222 218 215 215 218 219 214 210 207 205 204 203 201 201 206 211 214 215 217 222 226 225 224 222 213 209 210 207 201 194 189 188 181 183 198 202 195 203 225 241 248 245 246 259 267 264 257
27 28 29 30 30 30 30 29 28 29 31 31 30 31 31 31 29 29 29 25 19 12 1 345 323 300 281 267 254 243 235 232 233 232 227 220 217 219 220 219 218 217 219 221 218 212 208 205 203 201 198 197 202 206 204 201 204 212 218 220 221 219 213 209 207 205 207 209 211 213 203 200 214 224 223 224 233 252 269 274 259 256 264 265 263
28 30 32 33 33 33 31 29 29 30 32 32 31 31 33 34 34 35 36 36 35 36 34 26 12 353 320 298 282 259 240 227 221 221 219 215 212 215 217 216 218 220 219 217 215 213 209 205 201 198 196 196 198 200 199 196 198 205 212 214 216 216 211 206 201 198 201 203 203 204 198 196 209 223 230 234 238 246 260 269 266 261 263 266 272
29 29 32 35 36 35 33 30 28 27 27 27 27 29 32 34 36 38 39 39 42 45 47 47 46 45 43 34 17 330 288 256 215 209 208 208 208 211 213 214 218 223 221 215 212 210 208 204 196 191 191 192 192 192 193 194 195 198 201 202 202 204 204 199 193 188 189 192 195 199 201 202 211 222 231 240 247 249 254 263 270 274 278 279 280
32 30 30 32 34 35 34 32 30 28 27 29 31 32 31 29 30 34 37 39 42 45 46 45 46 48 51 54 57 60 59 52 75 184 194 199 204 208 212 212 212 215 218 215 212 208 206 201 192 185 185 186 187 187 187 188 188 188 189 190 191 194 194 189 183 178 181 189 195 199 204 210 217 226 234 242 252 260 266 270 273 276 279 280 282
33 31 31 30 30 31 31 32 32 30 30 32 35 38 38 34 30 28 28 32 36 41 44 41 39 41 43 48 53 58 64 64 59 67 109 164 188 201 212 208 202 202 203 201 199 196 194 189 184 182 182 182 183 184 181 179 178 176 174 172 171 170 173 175 175 176 183 192 194 192 196 199 202 208 215 221 228 236 249 263 271 279 283 288 294
29 30 31 30 28 27 27 29 32 32 31 31 35 40 42 42 42 39 37 35 33 31 31 31 31 34 38 45 50 51 55 61 62 61 66 82 111 127 157 180 185 189 187 180 177 178 178 174 172 173 175 175 174 170 163 158 157 155 152 150 148 146 150 166 178 182 188 194 191 185 184 182 180 183 188 195 207 223 255 282 296 303 305 309 312
26 26 26 25 24 24 25 28 31 32 33 34 37 41 43 43 44 44 44 45 42 38 34 30 27 23 24 37 47 50 53 61 71 78 80 82 90 96 108 131 148 162 165 156 149 151 154 155 153 151 151 151 151 150 145 138 134 131 127 125 126 130 145 166 185 192 193 190 182 174 169 166 167 171 170 164 157 33 360 342 334 329 326 329 330
25 25 23 20 21 22 23 26 30 32 35 37 39 43 45 44 43 42 42 43 44 43 41 41 39 36 33 32 34 41 50 58 67 78 84 89 94 98 104 110 117 126 133 129 123 122 125 128 129 128 127 128 130 131 129 125 124 127 129 129 126 117 105 120 174 183 175 165 157 155 153 151 145 136 120 104 98 104 93 80 54 3 353 351 342
24 26 24 21 21 21 22 25 28 30 33 37 40 43 46 44 42 41 40 39 39 39 40 42 43 43 42 43 44 45 53 67 74 78 82 92 103 110 115 117 117 119 120 119 118 117 118 120 123 122 122 123 122 121 122 121 121 123 129 136 140 130 93 68 96 133 129 122 123 122 119 117 111 106 108 109 108 102 88 83 82 71 63 55 41
22 28 27 22 21 23 24 25 26 27 29 33 36 41 44 43 40 39 39 38 38 37 37 39 43 45 45 47 50 56 64 77 87 90 91 96 104 112 122 129 132 132 132 133 135 134 133 134 134 134 134 133 130 129 131 131 128 121 116 117 122 120 108 95 98 95 86 84 86 86 88 92 97 100 102 99 92 85 79 73 67 62 61 55 45
20 27 27 23 23 27 27 25 24 25 28 31 32 35 41 42 38 35 35 36 36 35 35 36 38 42 46 48 52 58 65 73 85 97 107 112 113 114 118 123 127 129 132 139 144 141 137 136 135 135 138 138 135 134 132 129 126 120 112 104 102 107 117 123 113 90 75 73 74 76 83 88 90 92 91 89 87 82 74 67 60 54 49 40 32
18 23 24 22 25 29 30 28 26 26 28 32 32 30 32 35 34 32 31 32 32 32 32 33 33 35 40 47 52 57 63 70 78 88 100 108 110 110 110 110 110 108 106 107 106 103 101 102 101 102 102 100 101 103 103 103 105 104 104 106 110 116 123 123 109 93 86 82 78 77 80 82 83 84 82 78 75 71 65 60 53 46 39 31 28
18 21 23 23 25 28 30 32 32 31 31 33 31 27 24 25 26 26 26 27 28 28 28 29 29 29 30 37 48 56 62 68 75 82 89 92 92 93 92 91 90 88 86 83 81 79 76 74 74 73 72 70 71 73 75 79 88 99 111 121 127 132 135 131 123 117 111 105 99 95 94 90 86 84 79 74 70 65 60 56 50 45 41 35 32
18 21 24 25 25 25 29 32 34 35 36 35 31 25 20 17 17 16 16 18 21 23 23 25 25 26 26 27 33 46 54 59 67 76 84 87 87 86 86 84 81 78 75 71 68 66 63 61 62 63 61 63 66 66 65 75 103 124 138 146 148 150 148 137 130 126 121 118 114 109 105 97 90 87 83 79 76 71 67 65 62 59 59 58 55
19 21 25 27 25 24 28 32 33 33 34 33 31 27 19 12 10 8 7 10 13 14 16 19 20 22 24 26 28 35 38 36 43 56 68 81 87 85 83 80 76 72 68 61 56 56 53 49 50 55 56 61 67 66 73 115 142 146 148 148 144 139 131 123 119 117 113 112 110 106 103 98 93 91 87 82 79 76 74 74 73 72 73 73 70
18 21 24 28 27 24 28 32 32 31 30 28 27 27 21 14 10 5 2 4 8 8 9 13 14 13 16 19 23 32 40 39 37 32 34 58 75 74 75 73 62 61 66 60 49 48 46 39 40 51 61 66 79 106 137 147 144 140 139 138 132 124 117 113 111 109 106 105 103 100 99 97 94 91 87 82 81 80 78 77 76 75 77 78 75
15 16 17 22 25 23 24 28 28 26 27 25 23 22 19 15 13 8 1 360 2 3 5 9 8 8 10 12 12 16 24 31 34 34 35 56 71 62 57 49 29 38 57 59 44 41 36 27 28 49 95 131 150 156 153 148 141 135 131 125 118 114 111 109 108 105 103 101 100 98 98 98 95 91 86 83 81 79 79 79 77 76 77 77 74
6 5 6 11 15 18 21 23 22 21 24 24 21 18 16 13 11 9 4 360 359 2 5 7 6 6 7 4 360 358 360 6 15 18 19 31 60 58 47 30 352 358 35 49 36 27 22 16 18 46 137 153 154 150 146 141 135 128 122 117 113 112 112 110 108 105 102 101 100 100 100 98 93 87 83 81 79 77 77 77 76 74 73 72 69
351 353 355 357 1 7 13 14 16 19 22 23 21 17 14 10 8 8 7 3 1 4 8 9 10 11 8 359 349 344 344 341 336 339 347 356 8 17 26 14 330 324 18 22 12 6 4 5 13 103 147 148 146 142 138 133 128 122 119 117 116 114 113 110 108 106 105 103 100 99 97 92 87 83 81 78 77 77 76 74 74 73 70 66 63
341 341 342 343 346 352 359 4 8 14 19 21 20 15 9 6 7 10 11 8 7 10 13 13 14 12 7 356 343 339 342 342 327 308 300 315 342 356 6 331 297 289 331 354 4 356 342 346 70 140 147 145 141 138 133 127 124 121 120 119 118 115 112 110 109 108 105 102 99 96 92 89 85 80 76 74 73 72 72 71 69 66 62 57 51
339 339 337 335 333 335 344 357 5 13 18 20 19 13 5 1 4 11 15 18 18 18 18 16 11 6 1 354 348 348 351 355 349 334 315 320 341 345 258 255 260 238 8 3 349 321 322 10 138 144 146 143 139 136 133 129 128 127 126 124 122 117 113 111 110 108 105 101 98 96 93 91 87 80 76 73 70 65 63 60 53 46 44 42 38
349 351 354 353 348 345 350 356 1 7 12 13 15 11 2 358 3 10 13 17 22 21 17 13 7 5 4 2 359 360 5 7 3 359 359 21 50 196 242 247 214 178 105 90 169 284 5 132 144 147 147 146 144 140 138 136 134 133 133 132 129 124 120 117 114 110 107 103 101 98 96 94 91 85 80 75 68 61 56 54 47 40 37 38 38
358 4 9 13 10 8 8 6 360 1 360 358 4 5 358 355 2 7 7 11 18 15 10 9 9 11 15 11 7 13 25 29 25 24 25 46 152 171 205 242 240 240 217 154 163 209 163 150 156 157 154 153 152 148 145 147 145 142 143 143 139 134 130 126 122 117 114 110 105 99 92 88 85 82 78 75 67 58 53 53 48 40 38 42 47
355 360 7 14 13 11 11 7 353 346 344 343 346 349 349 352 359 2 3 10 19 14 8 11 14 18 19 12 10 22 37 37 32 32 34 45 88 143 225 265 260 227 160 148 160 187 142 144 157 164 165 163 158 150 149 154 153 150 153 156 151 144 139 136 133 127 120 114 108 101 90 83 80 76 72 71 67 57 51 53 49 40 36 39 44
345 345 350 358 2 2 2 359 349 341 337 336 336 339 342 348 356 359 359 6 15 13 9 10 14 19 23 16 11 22 38 40 36 35 37 43 52 59 70 88 94 105 125 141 155 154 133 133 144 153 156 158 159 158 158 159 154 152 160 165 162 155 147 144 142 138 129 119 109 101 93 85 79 73 64 62 62 54 46 46 46 39 34 32 33
337 332 330 334 340 345 346 345 343 339 337 337 339 337 335 340 351 357 356 360 8 12 7 3 3 9 23 25 15 15 32 44 42 38 37 39 41 44 61 93 109 118 132 143 146 145 143 144 148 149 148 151 157 157 153 147 141 145 156 162 162 159 153 147 145 140 131 119 106 95 91 83 74 66 53 44 46 45 39 35 33 31 29 27 28
338 330 322 320 327 335 340 341 339 336 335 339 342 339 333 332 340 350 352 354 2 7 4 0 359 4 19 31 24 15 29 46 48 43 41 40 39 40 49 72 104 129 149 162 166 163 155 152 152 155 158 163 165 156 144 132 129 134 145 151 154 156 154 150 146 140 130 120 107 98 91 75 55 41 32 25 20 14 16 22 21 23 28 33 38
343 337 327 317 317 324 332 338 340 337 337 341 342 340 335 331 333 342 348 348 353 1 2 358 357 3 16 29 30 26 40 50 50 45 41 37 34 34 38 46 60 90 134 157 158 145 136 137 148 159 169 175 175 168 162 153 134 133 139 147 151 152 150 147 148 147 136 118 96 75 62 45 24 6 1 4 359 338 326 340 6 25 40 48 52
344 339 333 325 320 323 331 340 343 340 338 340 341 340 339 335 332 335 339 339 342 351 354 350 349 357 13 30 42 54 56 53 49 44 39 33 27 23 24 29 37 47 70 111 121 118 121 136 156 168 177 186 190 187 186 189 170 156 155 153 150 148 145 146 152 154 141 101 45 6 349 349 349 340 336 337 332 313 281 244 227 58 59 62 56
343 339 334 327 320 321 331 341 345 344 341 339 335 334 338 338 334 330 329 330 334 340 342 342 343 345 353 14 46 57 53 44 40 38 33 26 18 13 10 9 15 30 43 68 111 125 137 163 184 190 196 205 210 211 215 218 200 181 172 163 155 151 149 151 156 156 143 67 14 3 352 345 340 333 328 326 318 293 231 199 189 150 87 76 59
349 346 341 333 324 322 325 332 337 337 334 332 328 327 331 335 336 336 336 334 331 333 337 338 336 336 333 327 360 78 51 27 16 15 13 7 1 360 1 359 358 4 13 9 33 135 175 223 241 249 251 243 233 230 230 222 203 190 182 172 165 160 157 158 166 180 209 328 349 350 343 340 338 332 328 326 320 266 185 176 172 149 107 84 55
2 3 359 349 336 328 327 327 329 328 326 323 319 318 322 327 331 335 338 333 327 330 336 337 334 334 331 312 269 236 229 16 360 346 346 348 342 330 333 349 352 344 320 307 294 263 255 263 264 268 267 252 233 224 219 208 197 191 184 178 173 171 168 175 197 229 264 304 326 332 334 336 336 333 332 333 336 158 159 159 154 140 123 100 38
Height
1514 1512 1511 1509 1507 1505 1505 1505 1505 1504 1503 1503 1502 1502 1502 1503 1503 1505 1506 1507 1508 1508 1509 1510 1510 1511 1513 1516 1518 1519 1520 1522 1523 1524 1525 1526 1527 1528 1529 1530 1531 1532 1533 1534 1535 1537 1538 1539 1540 1542 1543 1544 1545 1546 1547 1548 1550 1551 1553 1554 1555 1557 1559 1561 1563 1564 1564 1564 1566 1567 1568 1569 1571 1572 1573 1574 1575 1576 1577 1578 1579 1579 1580 1581 1582
1513 1511 1510 1508 1506 1504 1503 1503 1503 1502 1502 1501 1501 1500 1500 1501 1502 1503 1504 1505 1506 1506 1508 1508 1509 1509 1512 1515 1517 1517 1518 1519 1519 1520 1521 1523 1525 1526 1527 1528 1528 1530 1530 1532 1533 1535 1536 1537 1539 1540 1542 1543 1544 1544 1545 1546 1548 1549 1551 1552 1553 1555 1557 1559 1561 1562 1563 1563 1564 1565 1567 1568 1569 1570 1572 1573 1574 1575 1576 1577 1578 1578 1579 1580 1581
1512 1510 1509 1507 1505 1504 1502 1502 1501 1500 1500 1499 1499 1498 1498 1499 1500 1501 1502 1503 1504 1505 1506 1507 1507 1508 1510 1513 1515 1516 1516 1516 1517 1517 1518 1521 1523 1524 1525 1526 1527 1528 1529 1530 1531 1532 1534 1535 1537 1538 1539 1541 1542 1542 1544 1545 1546 1548 1549 1550 1552 1553 1555 1557 1559 1560 1561 1562 1563 1564 1565 1566 1568 1569 1570 1571 1572 1574 1574 1575 1576 1577 1578 1579 1580
1511 1509 1508 1506 1504 1503 1501 1500 1499 1498 1498 1497 1497 1496 1496 1497 1497 1499 1500 1501 1503 1504 1505 1505 1505 1506 1508 1511 1513 1514 1515 1515 1515 1516 1517 1519 1521 1522 1523 1524 1525 1526 1527 1528 1529 1530 1532 1533 1535 1536 1537 1538 1539 1541 1542 1543 1545 1546 1547 1549 1550 1552 1553 1554 1556 1558 1560 1561 1562 1563 1564 1565 1566 1567 1569 1570 1571 1572 1573 1574 1575 1576 1577 1577 1578
1510 1508 1506 1504 1503 1501 1500 1499 1498 1497 1496 1495 1495 1494 1493 1493 1494 1496 1498 1499 1501 1502 1503 1503 1504 1504 1506 1509 1511 1513 1514 1514 1515 1515 1516 1517 1519 1520 1522 1523 1524 1524 1525 1526 1527 1528 1530 1531 1533 1534 1535 1536 1537 1538 1540 1541 1543 1544 1546 1547 1548 1549 1551 1552 1554 1556 1557 1559 1560 1561 1562 1564 1565 1566 1567 1568 1569 1570 1571 1572 1573 1574 1575 1576 1576
1510 1507 1505 1503 1501 1500 1499 1498 1496 1495 1494 1493 1493 1492 1491 1491 1492 1494 1496 1498 1499 1501 1501 1502 1502 1503 1505 1507 1509 1511 1512 1513 1513 1514 1514 1515 1517 1519 1520 1521 1522 1523 1524 1525 1526 1527 1528 1530 1531 1532 1533 1534 1535 1537 1538 1540 1541 1543 1544 1545 1546 1547 1548 1550 1552 1553 1555 1557 1558 1559 1561 1562 1563 1564 1565 1566 1567 1568 1569 1570 1571 1572 1573 1574 1575
1510 1507 1505 1502 1500 1499 1497 1496 1495 1494 1493 1492 1491 1490 1490 1490 1491 1493 1495 1496 1498 1499 1499 1500 1501 1502 1504 1506 1508 1509 1510 1510 1511 1511 1512 1513 1515 1517 1518 1519 1520 1521 1522 1523 1524 1525 1527 1528 1529 1530 1531 1533 1534 1535 1536 1538 1539 1541 1542 1543 1544 1545 1546 1548 1549 1551 1553 1554 1556 1557 1559 1560 1561 1562 1563 1564 1566 1567 1567 1568 1569 1570 1571 1572 1573
1510 1508 1505 1502 1499 1497 1496 1495 1493 1493 1492 1491 1490 1490 1490 1490 1491 1492 1493 1495 1496 1497 1498 1499 1500 1501 1503 1505 1506 1507 1508 1508 1508 1509 1510 1511 1512 1514 1516 1517 1518 1519 1520 1521 1522 1523 1525 1526 1527 1528 1529 1531 1531 1533 1534 1536 1538 1539 1540 1541 1542 1543 1544 1545 1546 1548 1551 1552 1554 1555 1557 1558 1559 1560 1561 1562 1563 1564 1565 1566 1568 1569 1570 1570 1571
1511 1508 1505 1502 1499 1497 1495 1493 1492 1491 1491 1490 1490 1490 1491 1491 1492 1492 1493 1493 1494 1495 1497 1498 1499 1500 1502 1504 1505 1505 1505 1506 1506 1507 1508 1508 1510 1512 1514 1515 1516 1517 1518 1519 1520 1522 1523 1524 1525 1526 1527 1528 1529 1530 1531 1533 1536 1537 1538 1539 1539 1541 1542 1541 1543 1548 1550 1551 1552 1553 1554 1556 1557 1558 1559 1560 1561 1562 1563 1565 1566 1567 1568 1569 1570
1512 1509 1506 1504 1501 1498 1495 1493 1491 1490 1490 1490 1490 1490 1491 1492 1492 1492 1492 1493 1493 1494 1495 1497 1498 1499 1501 1502 1503 1504 1504 1503 1504 1505 1506 1507 1508 1510 1512 1513 1515 1516 1517 1518 1519 1520 1521 1522 1523 1524 1525 1526 1527 1528 1529 1531 1533 1535 1536 1537 1537 1539 1539 1539 1543 1547 1548 1548 1549 1550 1552 1553 1554 1555 1556 1557 1558 1560 1562 1563 1564 1565 1566 1567 1568
1512 1510 1507 1505 1502 1499 1496 1493 1491 1489 1489 1489 1489 1489 1490 1491 1491 1492 1491 1492 1493 1493 1494 1496 1497 1498 1499 1501 1501 1502 1502 1501 1502 1503 1504 1505 1506 1508 1510 1511 1513 1514 1515 1516 1517 1518 1519 1520 1521 1522 1524 1525 1526 1527 1528 1529 1531 1532 1534 1534 1535 1536 1537 1538 1541 1544 1545 1546 1547 1548 1549 1551 1552 1553 1554 1555 1556 1558 1559 1560 1561 1562 1563 1565 1566
1513 1511 1509 1506 1503 1500 1497 1494 1491 1489 1488 1488 1487 1488 1488 1489 1490 1490 1490 1491 1491 1492 1493 1494 1495 1497 1498 1499 1499 1500 1500 1500 1500 1502 1503 1504 1505 1507 1508 1510 1511 1512 1513 1514 1515 1516 1517 1518 1519 1521 1522 1523 1524 1525 1526 1527 1528 1529 1530 1531 1532 1533 1534 1536 1538 1540 1542 1543 1544 1546 1547 1548 1549 1551 1552 1553 1554 1555 1557 1558 1559 1560 1561 1562 1563
1514 1512 1510 1507 1504 1501 1498 1496 1493 1490 1488 1487 1487 1487 1486 1487 1487 1488 1489 1490 1490 1491 1492 1492 1493 1495 1496 1497 1497 1498 1498 1499 1499 1500 1501 1503 1504 1505 1507 1508 1509 1510 1512 1513 1514 1515 1516 1517 1518 1519 1520 1521 1522 1523 1524 1525 1526 1527 1528 1529 1530 1531 1532 1533 1535 1537 1538 1540 1542 1543 1544 1546 1547 1548 1549 1551 1552 1553 1554 1555 1556 1558 1558 1559 1560
1515 1513 1511 1508 1505 1503 1500 1497 1494 1492 1490 1488 1487 1486 1486 1486 1486 1487 1488 1488 1489 1489 1489 1490 1491 1492 1493 1494 1495 1496 1496 1497 1498 1499 1500 1501 1503 1504 1505 1507 1508 1509 1510 1511 1512 1513 1514 1515 1516 1517 1518 1519 1520 1521 1522 1523 1524 1525 1526 1527 1528 1529 1530 1531 1533 1534 1535 1537 1539 1540 1541 1543 1544 1545 1547 1548 1549 1550 1552 1553 1554 1555 1555 1556 1556
1516 1514 1512 1509 1507 1504 1502 1499 1496 1494 1492 1490 1488 1487 1486 1485 1485 1485 1486 1486 1487 1487 1487 1488 1489 1489 1490 1492 1493 1494 1495 1496 1497 1498 1499 1500 1501 1503 1504 1505 1506 1507 1509 1510 1511 1512 1513 1514 1515 1516 1516 1518 1519 1520 1521 1522 1522 1523 1524 1525 1526 1527 1528 1529 1531 1532 1532 1535 1536 1536 1538 1540 1541 1542 1544 1545 1546 1547 1548 1549 1551 1552 1552 1552 1553
1518 1515 1513 1511 1508 1506 1504 1501 1499 1496 1494 1492 1490 1488 1487 1486 1485 1485 1485 1485 1485 1485 1486 1487 1487 1487 1489 1489 1490 1492 1493 1494 1495 1496 1497 1499 1500 1501 1502 1503 1505 1506 1507 1508 1509 1510 1512 1512 1513 1514 1515 1516 1517 1518 1519 1520 1521 1522 1523 1524 1524 1525 1526 1527 1529 1530 1531 1533 1534 1535 1536 1537 1538 1539 1541 1542 1543 1544 1546 1547 1548 1549 1550 1550 1551
1519 1517 1514 1512 1510 1508 1506 1504 1501 1499 1496 1494 1492 1490 1489 1487 1486 1485 1485 1484 1484 1484 1485 1485 1485 1486 1487 1487 1488 1489 1491 1492 1494 1495 1496 1497 1498 1500 1501 1502 1503 1504 1505 1506 1507 1508 1509 1510 1512 1513 1514 1515 1516 1517 1518 1518 1519 1521 1522 1523 1523 1524 1525 1525 1526 1528 1529 1530 1532 1533 1534 1535 1536 1537 1538 1539 1541 1542 1544 1545 1546 1547 1548 1549 1550
1522 1519 1517 1515 1513 1510 1508 1506 1503 1501 1499 1496 1494 1492 1490 1489 1488 1487 1485 1485 1484 1484 1484 1485 1484 1484 1485 1485 1485 1486 1488 1490 1492 1493 1494 1495 1497 1498 1499 1500 1501 1502 1503 1504 1505 1506 1507 1508 1510 1511 1512 1514 1515 1516 1517 1517 1518 1519 1521 1522 1522 1523 1523 1524 1525 1526 1527 1529 1531 1532 1533 1534 1535 1536 1537 1539 1540 1542 1543 1544 1544 1545 1546 1548 1548
1524 1522 1520 1517 1515 1513 1510 1508 1506 1504 1502 1499 1497 1495 1493 1492 1491 1489 1487 1486 1485 1485 1485 1485 1485 1484 1484 1484 1483 1484 1485 1487 1489 1491 1491 1493 1494 1496 1497 1498 1499 1500 1501 1502 1503 1504 1505 1506 1507 1509 1510 1512 1513 1514 1515 1516 1517 1519 1520 1521 1521 1522 1523 1524 1525 1526 1527 1529 1531 1532 1533 1534 1535 1536 1537 1538 1539 1540 1541 1542 1543 1543 1544 1545 1546
1528 1526 1523 1520 1518 1515 1513 1511 1509 1507 1505 1503 1501 1499 1497 1496 1494 1492 1490 1489 1488 1487 1487 1486 1485 1485 1485 1484 1483 1483 1483 1484 1487 1488 1489 1490 1492 1493 1494 1495 1496 1498 1499 1500 1501 1502 1502 1503 1505 1507 1508 1509 1511 1512 1514 1515 1517 1518 1519 1520 1521 1521 1522 1523 1524 1526 1527 1528 1529 1531 1532 1533 1534 1535 1536 1537 1538 1539 1540 1540 1541 1542 1542 1543 1543
1531 1529 1526 1523 1521 1518 1516 1514 1513 1511 1509 1507 1505 1503 1501 1500 1498 1496 1495 1493 1491 1490 1488 1488 1487 1486 1486 1485 1485 1484 1483 1484 1484 1485 1485 1487 1489 1490 1491 1492 1494 1495 1496 1497 1498 1499 1500 1501 1502 1504 1505 1507 1509 1511 1512 1514 1515 1517 1518 1519 1520 1521 1522 1523 1524 1525 1526 1527 1528 1529 1531 1532 1533 1533 1535 1536 1537 1538 1538 1539 1539 1540 1540 1541 1541
1533 1531 1529 1526 1524 1521 1519 1517 1516 1514 1512 1510 1508 1506 1505 1503 1502 1500 1498 1497 1495 1493 1491 1490 1489 1489 1488 1487 1486 1486 1485 1486 1484 1481 1481 1485 1487 1487 1489 1489 1491 1493 1494 1495 1496 1497 1498 1500 1501 1502 1504 1505 1507 1509 1511 1512 1514 1515 1517 1518 1519 1520 1521 1522 1523 1524 1525 1527 1527 1528 1529 1530 1531 1532 1533 1534 1535 1536 1537 1537 1537 1537 1538 1538 1538
1536 1534 1532 1529 1527 1524 1522 1520 1519 1517 1515 1513 1511 1509 1507 1506 1504 1503 1501 1499 1498 1496 1494 1493 1492 1491 1490 1489 1488 1487 1487 1489 1486 1481 1480 1484 1486 1487 1488 1489 1489 1491 1493 1494 1495 1496 1497 1499 1501 1502 1503 1505 1507 1508 1510 1512 1513 1514 1516 1517 1518 1519 1520 1521 1522 1523 1525 1526 1527 1527 1528 1529 1530 1531 1531 1532 1533 1534 1534 1534 1535 1535 1536 1536 1536
1538 1536 1534 1532 1529 1527 1525 1523 1521 1519 1517 1516 1513 1511 1509 1508 1506 1505 1503 1502 1500 1498 1497 1496 1494 1494 1493 1492 1492 1491 1490 1490 1488 1483 1482 1485 1486 1488 1490 1490 1490 1490 1491 1493 1494 1495 1497 1498 1500 1501 1503 1504 1506 1507 1509 1511 1513 1514 1515 1517 1518 1519 1520 1522 1522 1523 1525 1525 1526 1526 1527 1528 1529 1529 1530 1531 1531 1532 1532 1533 1533 1533 1533 1534 1534
1540 1538 1536 1534 1532 1530 1528 1526 1524 1522 1520 1518 1516 1514 1512 1510 1508 1507 1505 1504 1502 1501 1500 1499 1497 1496 1496 1495 1495 1494 1493 1492 1489 1486 1486 1487 1488 1490 1491 1492 1492 1492 1492 1493 1494 1495 1496 1498 1500 1502 1503 1504 1505 1507 1509 1511 1513 1514 1515 1516 1518 1519 1521 1522 1523 1523 1524 1525 1525 1526 1526 1527 1527 1528 1529 1529 1530 1530 1530 1531 1531 1531 1531 1531 1531
1541 1539 1538 1536 1534 1532 1530 1528 1527 1525 1523 1521 1519 1517 1515 1513 1512 1510 1508 1506 1505 1504 1503 1501 1500 1499 1499 1498 1497 1497 1496 1494 1492 1490 1490 1491 1491 1492 1494 1495 1495 1494 1494 1495 1496 1496 1497 1499 1501 1502 1503 1505 1506 1507 1509 1511 1513 1514 1515 1516 1518 1520 1522 1523 1524 1524 1524 1525 1525 1525 1526 1526 1527 1527 1527 1528 1528 1529 1529 1529 1529 1529 1529 1529 1529
1542 1541 1539 1537 1536 1534 1532 1530 1529 1527 1526 1524 1522 1520 1518 1517 1515 1513 1511 1509 1508 1507 1506 1504 1503 1501 1500 1499 1499 1498 1497 1496 1495 1494 1493 1494 1494 1495 1497 1498 1498 1496 1496 1497 1498 1498 1499 1500 1502 1503 1504 1505 1507 1508 1509 1511 1513 1514 1515 1516 1518 1520 1522 1523 1525 1525 1525 1524 1524 1524 1525 1525 1526 1526 1526 1527 1527 1528 1528 1528 1528 1528 1528 1528 1528
1543 1542 1540 1539 1537 1535 1534 1532 1531 1529 1528 1526 1525 1523 1521 1519 1518 1516 1515 1513 1511 1510 1508 1507 1506 1504 1503 1501 1500 1499 1498 1498 1497 1496 1496 1497 1497 1497 1498 1499 1499 1498 1498 1499 1500 1501 1501 1501 1502 1503 1504 1506 1507 1508 1509 1511 1512 1514 1515 1515 1517 1519 1521 1523 1525 1525 1524 1524 1523 1523 1524 1524 1525 1525 1526 1527 1527 1527 1527 1527 1527 1528 1528 1528 1528
1544 1543 1541 1540 1538 1537 1535 1533 1532 1530 1529 1528 1526 1525 1523 1522 1521 1519 1518 1516 1514 1513 1511 1510 1508 1507 1506 1505 1503 1502 1501 1500 1499 1499 1499 1500 1499 1499 1499 1500 1500 1499 1499 1500 1501 1502 1503 1503 1503 1504 1505 1506 1507 1508 1509 1510 1512 1513 1515 1516 1517 1519 1521 1523 1525 1525 1524 1523 1523 1523 1523 1524 1525 1525 1526 1526 1526 1526 1526 1526 1526 1526 1527 1527 1527
1545 1543 1542 1541 1540 1538 1537 1535 1533 1532 1530 1529 1528 1527 1526 1524 1523 1522 1520 1519 1517 1516 1514 1512 1511 1510 1509 1508 1507 1505 1504 1503 1502 1502 1502 1502 1502 1501 1501 1501 1501 1500 1501 1502 1503 1503 1504 1504 1505 1506 1507 1508 1508 1509 1510 1511 1513 1514 1515 1516 1517 1519 1521 1523 1524 1523 1523 1522 1522 1523 1524 1525 1525 1525 1525 1525 1525 1525 1525 1525 1525 1525 1525 1525 1525
1546 1544 1543 1542 1541 1539 1538 1537 1535 1533 1532 1531 1530 1529 1528 1526 1525 1524 1523 1521 1520 1518 1516 1515 1513 1512 1511 1511 1510 1509 1507 1507 1506 1505 1505 1505 1504 1504 1504 1503 1503 1503 1503 1504 1505 1505 1506 1506 1507 1507 1508 1509 1510 1510 1512 1513 1515 1516 1516 1517 1518 1520 1521 1522 1522 1522 1521 1521 1522 1523 1524 1524 1525 1525 1525 1525 1524 1524 1524 1523 1523 1523 1523 1523 1523
1547 1545 1544 1543 1542 1541 1539 1538 1537 1535 1533 1532 1531 1531 1530 1528 1527 1526 1524 1523 1521 1520 1518 1517 1516 1514 1513 1512 1512 1511 1510 1510 1509 1508 1508 1507 1507 1507 1507 1506 1506 1506 1506 1507 1507 1507 1508 1508 1509 1509 1509 1510 1510 1512 1513 1515 1516 1517 1518 1518 1519 1520 1521 1521 1521 1521 1521 1521 1521 1523 1524 1524 1524 1525 1525 1524 1524 1523 1523 1522 1522 1522 1522 1522 1522
1548 1546 1545 1544 1543 1542 1541 1540 1538 1537 1535 1534 1533 1532 1531 1530 1529 1527 1526 1524 1523 1522 1520 1519 1518 1516 1515 1514 1513 1512 1512 1511 1511 1511 1510 1509 1509 1509 1509 1509 1509 1508 1508 1509 1509 1509 1509 1510 1510 1510 1511 1511 1512 1512 1514 1515 1517 1517 1518 1519 1519 1520 1520 1520 1520 1520 1521 1521 1521 1522 1523 1524 1525 1525 1525 1524 1524 1523 1522 1522 1522 1522 1522 1522 1522
1548 1547 1546 1545 1544 1543 1542 1541 1539 1538 1537 1536 1534 1533 1532 1531 1530 1529 1527 1526 1524 1523 1522 1520 1519 1517 1516 1515 1514 1513 1512 1512 1512 1512 1511 1511 1510 1510 1510 1510 1510 1510 1510 1510 1510 1510 1510 1511 1511 1511 1511 1512 1513 1513 1515 1516 1517 1518 1518 1519 1519 1519 1519 1519 1520 1521 1521 1521 1522 1522 1523 1524 1524 1525 1524 1524 1523 1523 1522 1522 1522 1522 1522 1523 1523
1549 1548 1547 1546 1545 1544 1543 1542 1541 1540 1538 1537 1536 1534 1533 1532 1531 1529 1528 1527 1525 1524 1522 1521 1520 1518 1517 1516 1515 1514 1513 1512 1512 1512 1512 1511 1511 1511 1511 1511 1511 1511 1511 1511 1511 1511 1511 1511 1512 1512 1512 1513 1513 1514 1516 1517 1518 1518 1518 1519 1519 1519 1519 1520 1520 1521 1521 1522 1522 1523 1523 1524 1524 1524 1524 1524 1523 1523 1523 1523 1523 1523 1523 1523 1523
1550 1549 1548 1547 1546 1545 1544 1543 1542 1541 1539 1538 1537 1535 1534 1533 1531 1530 1529 1527 1526 1525 1523 1522 1520 1519 1518 1517 1516 1515 1514 1513 1512 1512 1512 1511 1511 1511 1511 1511 1511 1511 1511 1512 1512 1512 1512 1512 1513 1513 1513 1514 1514 1515 1516 1517 1518 1518 1519 1519 1519 1519 1519 1520 1521 1521 1522 1522 1523 1523 1523 1524 1524 1524 1524 1524 1523 1523 1523 1523 1523 1523 1523 1523 1523
1550 1549 1548 1547 1546 1545 1544 1543 1543 1541 1540 1539 1538 1536 1535 1533 1532 1530 1529 1528 1527 1525 1524 1522 1521 1520 1519 1518 1517 1516 1515 1514 1513 1512 1512 1512 1511 1511 1511 1511 1512 1512 1512 1512 1512 1513 1513 1513 1513 1514 1514 1514 1515 1516 1517 1517 1518 1518 1519 1519 1519 1519 1520 1521 1522 1522 1523 1523 1524 1524 1524 1525 1525 1524 1524 1524 1524 1524 1524 1524 1524 1524 1524 1524 1524
1551 1550 1549 1548 1547 1546 1545 1544 1543 1542 1541 1539 1538 1537 1535 1534 1532 1531 1529 1528 1527 1526 1524 1523 1522 1521 1520 1518 1517 1516 1515 1514 1513 1513 1512 1512 1511 1511 1511 1512 1512 1512 1512 1512 1513 1513 1513 1513 1514 1514 1514 1515 1516 1516 1517 1518 1518 1519 1519 1520 1520 1521 1521 1522 1523 1523 1524 1524 1525 1525 1525 1525 1525 1525 1524 1524 1524 1524 1524 1524 1524 1524 1524 1524 1524
1551 1550 1549 1547 1546 1546 1545 1544 1543 1542 1541 1540 1539 1538 1536 1534 1533 1531 1530 1529 1527 1526 1525 1524 1523 1521 1520 1518 1517 1515 1514 1513 1513 1512 1512 1512 1511 1512 1512 1512 1512 1512 1512 1512 1513 1513 1513 1513 1514 1514 1515 1516 1516 1517 1518 1519 1519 1520 1520 1521 1521 1522 1523 1523 1524 1525 1525 1525 1525 1525 1525 1525 1525 1525 1525 1525 1525 1525 1525 1525 1525 1525 1525 1524 1524
1551 1550 1548 1547 1546 1545 1544 1544 1543 1542 1541 1541 1540 1538 1537 1535 1533 1532 1530 1529 1528 1527 1526 1525 1523 1522 1520 1518 1516 1514 1513 1513 1512 1511 1511 1511 1512 1512 1512 1512 1513 1513 1513 1513 1513 1513 1513 1514 1514 1515 1515 1516 1517 1518 1519 1520 1520 1521 1522 1522 1523 1523 1524 1525 1525 1525 1526 1526 1526 1526 1526 1526 1526 1526 1526 1526 1526 1525 1525 1525 1525 1525 1524 1524 1523
1550 1549 1548 1546 1545 1544 1544 1543 1543 1542 1541 1541 1540 1539 1537 1535 1534 1532 1531 1530 1529 1528 1527 1526 1524 1523 1521 1519 1516 1514 1513 1512 1511 1511 1511 1511 1511 1512 1512 1512 1512 1513 1513 1513 1513 1513 1514 1514 1515 1515 1516 1517 1518 1519 1520 1521 1521 1522 1523 1523 1524 1525 1525 1525 1526 1526 1526 1526 1527 1527 1527 1526 1526 1526 1526 1526 1526 1526 1526 1525 1525 1525 1524 1524 1524
1551 1549 1548 1547 1545 1545 1544 1544 1543 1542 1542 1541 1540 1539 1537 1536 1534 1533 1531 1530 1529 1528 1527 1526 1525 1523 1521 1519 1517 1515 1514 1513 1512 1511 1511 1511 1511 1511 1512 1512 1512 1512 1513 1513 1514 1514 1514 1515 1516 1516 1517 1518 1519 1520 1521 1522 1522 1523 1524 1524 1525 1525 1526 1526 1526 1526 1527 1527 1527 1527 1527 1526 1526 1526 1526 1526 1526 1527 1526 1526 1526 1525 1525 1524 1524
1551 1550 1549 1547 1546 1545 1545 1544 1543 1542 1542 1541 1540 1539 1538 1536 1535 1533 1532 1531 1529 1529 1528 1527 1526 1524 1522 1521 1519 1517 1516 1515 1514 1513 1512 1511 1511 1511 1511 1511 1511 1511 1512 1514 1514 1515 1515 1516 1516 1517 1518 1519 1520 1521 1522 1522 1523 1524 1524 1525 1525 1526 1526 1526 1526 1526 1527 1527 1527 1527 1527 1527 1527 1527 1527 1527 1527 1527 1527 1526 1526 1526 1525 1525 1525
1551 1550 1549 1548 1547 1546 1545 1545 1544 1543 1542 1541 1540 1539 1538 1537 1535 1534 1533 1531 1530 1529 1528 1527 1526 1525 1523 1522 1520 1519 1518 1516 1515 1514 1513 1513 1512 1512 1512 1511 1511 1512 1513 1514 1515 1516 1516 1517 1518 1519 1519 1520 1521 1521 1522 1522 1523 1524 1524 1525 1525 1526 1526 1526 1526 1527 1527 1527 1527 1527 1527 1527 1528 1528 1527 1527 1527 1527 1527 1527 1526 1526 1526 1526 1526
1551 1550 1549 1548 1547 1546 1546 1545 1544 1543 1542 1541 1540 1539 1538 1537 1535 1534 1533 1532 1531 1530 1528 1527 1527 1525 1524 1522 1522 1521 1520 1518 1517 1517 1516 1515 1514 1514 1513 1513 1514 1514 1515 1516 1516 1517 1518 1518 1519 1520 1520 1521 1521 1522 1522 1523 1523 1524 1524 1525 1525 1526 1526 1526 1526 1527 1527 1527 1528 1528 1528 1528 1528 1528 1528 1527 1527 1527 1527 1527 1527 1527 1527 1527 1526
1550 1549 1549 1548 1547 1546 1546 1545 1544 1543 1542 1541 1540 1539 1538 1536 1535 1535 1534 1532 1531 1530 1529 1528 1527 1526 1524 1523 1523 1522 1521 1520 1519 1519 1518 1517 1517 1516 1516 1515 1516 1516 1516 1517 1517 1518 1518 1519 1519 1520 1521 1521 1522 1522 1523 1523 1523 1524 1524 1524 1525 1525 1526 1526 1526 1527 1527 1527 1528 1528 1528 1528 1528 1528 1528 1528 1528 1528 1527 1527 1527 1527 1527 1527 1527
1550 1549 1548 1547 1547 1546 1545 1544 1543 1542 1541 1541 1540 1539 1537 1536 1535 1535 1534 1533 1531 1530 1529 1528 1528 1527 1525 1524 1523 1523 1523 1522 1521 1521 1520 1519 1519 1518 1518 1518 1517 1517 1517 1517 1518 1518 1519 1519 1520 1520 1521 1522 1522 1523 1523 1523 1524 1524 1524 1525 1525 1525 1526 1526 1527 1527 1528 1528 1528 1528 1528 1528 1528 1528 1528 1527 1527 1527 1527 1527 1528 1528 1528 1528 1527
1549 1548 1547 1547 1546 1546 1545 1544 1543 1542 1541 1540 1540 1538 1537 1536 1535 1534 1533 1533 1531 1530 1529 1528 1528 1527 1526 1525 1524 1524 1524 1523 1523 1522 1522 1521 1521 1520 1519 1519 1519 1519 1518 1518 1518 1519 1519 1520 1520 1521 1521 1522 1522 1523 1523 1523 1524 1524 1524 1525 1525 1526 1526 1527 1527 1528 1528 1528 1528 1528 1528 1528 1528 1527 1527 1527 1527 1527 1527 1527 1528 1528 1528 1528 1528
1548 1547 1546 1546 1546 1545 1545 1544 1543 1542 1541 1540 1539 1538 1537 1536 1535 1534 1533 1532 1531 1530 1529 1528 1528 1527 1526 1526 1525 1525 1525 1524 1524 1523 1523 1523 1522 1521 1521 1520 1520 1520 1519 1519 1519 1519 1520 1520 1521 1521 1521 1522 1522 1522 1523 1523 1524 1524 1525 1525 1525 1526 1526 1527 1527 1528 1528 1528 1528 1528 1527 1527 1527 1527 1526 1526 1526 1526 1526 1526 1527 1528 1528 1528 1528
1547 1546 1546 1545 1545 1545 1544 1543 1543 1542 1541 1540 1539 1538 1537 1536 1535 1534 1533 1532 1531 1530 1529 1528 1527 1527 1526 1526 1525 1525 1525 1525 1524 1524 1524 1523 1523 1522 1522 1521 1520 1520 1520 1520 1520 1520 1520 1520 1520 1521 1521 1521 1522 1522 1523 1523 1523 1524 1524 1525 1525 1526 1526 1527 1527 1527 1528 1528 1527 1527 1527 1527 1526 1526 1526 1525 1525 1525 1525 1526 1527 1527 1528 1528 1528
1547 1546 1545 1545 1544 1544 1544 1543 1542 1541 1540 1539 1538 1538 1537 1536 1534 1534 1533 1532 1531 1530 1529 1528 1527 1527 1526 1526 1525 1525 1525 1524 1524 1524 1524 1524 1523 1523 1522 1522 1521 1521 1520 1520 1520 1520 1520 1520 1520 1520 1521 1521 1521 1521 1522 1522 1523 1524 1524 1525 1525 1526 1526 1527 1527 1527 1527 1527 1527 1527 1527 1526 1526 1525 1525 1524 1524 1524 1525 1526 1527 1527 1528 1528 1528